Flag for Canada Weather past 2 weeks in Brampton, Ontario, Canada

Now
75 °F

Passing clouds.


Feels Like: 77 °F
Forecast: 66 / 84 °F
Wind: 21 mph from Southwest

Location: Toronto Pearson International Airport

Current Time: May 25, 2015 at 11:54:39 PM

Latest Report: May 25, 2015 at 11:00 PM


Visibility: 15 mi

Pressure: 29.95 "Hg

Humidity: 61%

Dew point: 61 °F

Location of BramptonLocation

Historic Weather in Brampton — Graph

°F

Brampton temperature yesterday

Maximum temperature yesterday: 82 °F (at 5:00 PM)
Minimum temperature yesterday: 52 °F (at 5:00 AM)
Average temperature yesterday: 70 °F

Past Weeks' High & Low Weather Summary

 TemperatureHumidityPressure
High82 °F (May 18, 5:00 PM)100% (May 11, 11:00 PM)30.49 "Hg (May 11, 11:00 PM)
Low36 °F (May 23, 5:03 AM)20% (May 23, 3:00 PM)29.74 "Hg (May 12, 1:47 AM)
Average59 °F57%30.09 "Hg
* Reported May 10 10:00 PM — May 25 10:00 PM, Brampton, Weather by CustomWeather, © 2015

Note: Actual official high and low records may vary slightly from our data, if they occured in-between our weather recording intervals... More about our weather records

Advertising

Brampton weather history for previous 24 hours

 ConditionsComfort  
Time TempWeatherWind HumidityBarometerVisibility
10:00 PM
Mon, May 25
75 °FPassing clouds.18 mph61%29.95 "Hg15 mi
9:00 PM77 °FScattered clouds.18 mph57%29.93 "Hg15 mi
8:00 PM79 °FBroken clouds.23 mph54%29.93 "Hg15 mi
7:00 PM81 °FPartly sunny.25 mph51%29.92 "Hg15 mi
6:00 PM81 °FPartly sunny.23 mph51%29.93 "Hg15 mi
5:00 PM81 °FPartly sunny.29 mph51%29.95 "Hg15 mi
4:00 PM81 °FBroken clouds.23 mph51%29.96 "Hg15 mi
3:00 PM73 °FMore clouds than sun.9 mph53%29.97 "Hg15 mi
2:00 PM68 °FMore clouds than sun.8 mph60%29.98 "Hg15 mi
1:00 PM72 °FBroken clouds.8 mph57%30.00 "Hg15 mi
12:00 PM66 °FSprinkles. Mostly cloudy.10 mph64%30.03 "Hg15 mi
11:54 AM70 °FSprinkles. More clouds than sun.9 mph53%30.03 "Hg15 mi
11:00 AM68 °FPartly sunny.8 mph53%30.04 "Hg15 mi
10:00 AM66 °FBroken clouds.8 mph56%30.07 "Hg15 mi
9:00 AM68 °FPartly sunny.9 mph56%30.08 "Hg15 mi
8:00 AM64 °FPartly sunny.10 mph64%30.09 "Hg15 mi
7:00 AM64 °FBroken clouds.7 mph60%30.10 "Hg15 mi
6:00 AM63 °FPartly cloudy.8 mph68%30.10 "Hg15 mi
5:00 AM63 °FLight rain. Overcast.3 mph73%30.11 "Hg15 mi
4:50 AM63 °FLight rain. Overcast.3 mph68%30.11 "Hg15 mi
4:00 AM64 °FOvercast.5 mph64%30.11 "Hg15 mi
3:00 AM66 °FLight rain. Mostly cloudy.3 mph60%30.12 "Hg15 mi
2:00 AM68 °FLight rain. Mostly cloudy.3 mph56%30.13 "Hg15 mi
1:00 AM70 °FLight rain. Overcast.3 mph50%30.13 "Hg15 mi
12:00 AM72 °FLight rain. Partly cloudy.5 mph38%30.13 "Hg15 mi
11:00 PM
Sun, May 24
73 °FOvercast.10 mph33%30.14 "Hg15 mi
Weather by CustomWeather, © 2015

See weather overviewHow to use our weather pages